IRIDIUM 171

Last updated on Fri Sep 11 2026 00:03:06 GMT+0000 (Coordinated Universal Time)

1 43929U 19002H 26253.48822764 .00000164 00000+0 51401-4 0 9993 2 43929 86.3998 318.2499 0002203 92.9050 267.2398 14.34218123401180
UTC large
Height (km)
Speed (km/s)
/
Latitude / Longitude
Inclination (degrees)
Orbital Period (minutes)
Azimuth
Elevation
Range (km)
Doppler Factor

Next 0 passes for location: London (51.5072 / 0.1276)

No passes found over London.
IRIDIUM 171